Location: Krasnoyarskiy Pitomnik
(51.1333°N, 71.6167°E)
Time: 08:19:54
(UTC+00:00)

SL-24 R/B - RUBIN 2 - Pass Details

Date: 22 October 2021
Orbit: 596 x 999 km, 64.6° (Epoch: 06 December)

Event Time Altitude Azimuth Distance (km) Brightness Sun altitude
Exits shadow 23:34:59 43° 318° (NW) 916 4.1 -21.8°
Maximum altitude 23:36:29 89° 244° (WSW) 646 3.5 -21.6°
Drops below altitude 10° 23:40:53 10° 140° (SE) 1,962 6.5 -20.9°
Sets 23:43:04 0° 140° (SE) 2,842 7.4 -20.6°
